STARLINK-34091, 63808

Orbit data source: Space-Track

STARLINK-34091, 63808 is a payload satellite owned by SpaceX/Seattle (US) in LEO that was launched on Sun, 04 May 2025 UTC via an FALCON 9 launch vehicle from the Air Force Eastern Test Range (AFETR). Payload-class satellites include a variety of spacecraft equipped with specific instruments for various scientific and technological missions. These include communications satellites like Starlink; space stations such as the ISS; scientific satellites like the Hubble; Earth observation satellites from companies like Planet Labs, Umbra, and HawkEye 360; GPS; miniature CubeSats for education and research; and military/defense satellites.

Loading next visibility...
Identifier
63808, 2025-092E
Orbit
LEO
Last TLE update
16 hours ago
Origin
Manufacturer
SpaceX/Seattle
Mission
Operational spacecraft
Bus & Motor
STARLINK V2MO, Unknown motor
Mass
575 kg wet, ~530 kg dry
Launch date (UTC)
2025-05-04 (1 week ago)
Launch vehicle
FALCON 9
Launch site
Air Force Eastern Test Range (AFETR)
Object type
Payload
Rocket body
Debris
Shape & HBR
Unknown
Radar Cross Section
Medium (>0.1 m² and <1 m²)

Expand to show TLE details & history

TLE from 16 hours ago
0 STARLINK-34091
1 63808U 25092E   25132.91668981 -.00871146  00000-0 -32493-2 0  9996
2 63808  43.0006  80.1881 0001538 251.3906  48.6045 15.88974876  2551
Epoch: 2025-05-12T22:00Z
Definitive object data (Epoch: 2025-05-12T22:00:01.999Z)
Latitude
-36.37656°
Longitude
-172.5069°
Altitude
314.998 km
Speed
7.72 km/s
True Right ascension
01h 53m 41s
True Declination
-36° 12' 06"
Sunlit
Object was in daylight at TLE epoch
Visualization TLE readout
Latitude
-0.24692°
Longitude
55.36898°
Altitude
308.159 km
Speed
7.725 km/s
Apparent Right ascension
14h 29m 00s
Apparent Declination
-28° 02' 59"
Sunlit
Object is in full shadow
Visualization observer readout
Local Sidereal Time
22:31:49
Azimuth
264.615° W
Elevation
-40.341°
Doppler factor
1
Orbital elements
Apogee altitude
308.181 km
Perigee altitude
306.124 km
Semi-major axis
6,685.289 km
Eccentricity
0.0001538
Inclination
43.0006°
RAAN
80.1881°
Arg. of periapsis
251.3906°
True anomaly
48.61772°
Mean anomaly
48.6045°
Eccentric anomaly
48.61111°
Mean motion
3.97066 °/min
BSTAR
-0.0032493
Orbital period
90.66 mins
Loading maneuver chart data...
Loading SW <> Apogee altitude chart data...
Loading historical data...
Loading historical data...
Loading historical data...
Loading historical data...
Loading historical data...
Loading historical data...
Loading historical data...

STARLINK-34091 Visibility forecast

Observer location: undefined°, undefined°

Span
Click to sort rows by Start time (UTC) header in descending order
Start Az.
Max El. time (UTC)
Max El. Az.
Max El.
End time (UTC)
End Az.
4 mins2025-05-14 00:08:57.410Z233.215° WSW2025-05-14 00:10:57.410Z174.283° S38.449°2025-05-14 00:12:57.410Z82.139° E
|